GFSWCAN_850_temp_273.txt.gz
Temp
-1 -1 -1 -1 -1 -1 -1 -1 -1 -1 -1 -1 -1 -1 -1 -0 0 0 1 1 1 1 1 1 1 2 2 2 -2 1 0 -1 -4 -5 -5 -5 -3 -1 1 2 3 1 -3 -6 -6 -8 -2 4 4 3 3 5 5 5
-1 -1 -1 -1 -1 -1 -1 -1 -1 -1 -1 -1 -1 -1 -1 -1 -0 -0 -0 0 0 1 0 0 1 1 2 2 2 1 1 0 1 -6 -7 -5 -3 -4 -0 -1 2 0 1 -1 -2 -1 2 4 4 5 5 5 5 5
-1 -1 -1 -1 -1 -1 -1 -1 -1 -1 -1 -1 -1 -1 -1 -1 -1 -1 -1 -0 -0 -0 0 0 1 1 1 2 1 1 0 1 1 1 -1 -5 -3 -3 -4 -2 0 2 2 -3 0 2 3 5 4 3 3 4 4 4
-2 -2 -1 -1 -2 -2 -2 -3 -2 -2 -2 -1 -2 -2 -2 -2 -1 -1 -1 -1 -1 -1 -2 -0 0 0 1 1 1 1 0 0 1 0 0 -8 -5 -1 -3 -1 -1 1 1 -0 -1 1 1 3 3 2 2 3 3 3
-2 -2 -2 -2 -3 -3 -3 -3 -2 -2 -2 -2 -2 -2 -2 -2 -2 -2 -2 -2 -1 -1 -3 -1 1 1 1 0 0 0 -0 -0 0 -1 -2 -4 -2 -2 -2 -3 -1 1 0 -1 -0 2 1 1 2 2 2 2 3 3
-3 -2 -2 -3 -3 -3 -3 -3 -3 -3 -3 -3 -2 -2 -2 -2 -2 -2 -2 -2 -2 -2 -1 -6 -1 0 1 0 0 0 -0 -1 -1 -1 -1 -1 -1 -0 -2 -3 1 2 2 1 0 2 1 1 1 1 1 2 2 3
-3 -3 -3 -3 -3 -3 -3 -3 -3 -3 -3 -3 -3 -2 -2 -3 -3 -2 -2 -2 -3 -2 -1 -3 -2 -0 -0 -0 -0 -0 -0 -1 -1 -1 -2 -1 -1 -1 -3 -2 0 1 1 1 1 1 0 1 1 2 2 1 2 3
-3 -4 -4 -3 -3 -3 -3 -3 -3 -3 -3 -3 -3 -3 -3 -3 -3 -3 -3 -3 -3 -2 -2 -4 -4 -1 -1 -0 -1 -1 -1 -1 -2 -2 -3 -3 -3 -2 -2 -0 1 1 1 1 1 1 1 1 1 2 3 2 1 2
-4 -4 -4 -4 -3 -3 -3 -3 -4 -4 -4 -4 -3 -3 -3 -4 -3 -3 -3 -3 -3 -3 -3 -5 -6 -7 -1 -1 -1 -2 -2 -5 -3 -3 -3 -2 -3 -3 -2 -1 0 1 0 1 1 1 1 1 1 2 3 2 2 2
-4 -4 -4 -4 -4 -4 -4 -4 -4 -4 -4 -4 -3 -3 -3 -4 -3 -3 -4 -3 -3 -4 -4 -4 -4 -5 -1 -2 -4 -3 -3 -5 -7 -5 -3 -4 -3 -1 0 -1 -1 -0 1 1 -0 0 1 0 2 2 3 3 2 2
-4 -4 -4 -4 -4 -4 -4 -4 -4 -4 -4 -4 -4 -4 -4 -4 -4 -3 -4 -4 -4 -4 -4 -4 -4 -4 -2 -3 -4 -3 -4 -4 -4 -3 -4 -4 -3 -3 -3 -2 -1 1 1 1 1 1 2 1 1 1 2 2 2 1
-5 -5 -5 -5 -5 -4 -4 -5 -4 -4 -4 -3 -4 -4 -4 -4 -4 -5 -7 -5 -5 -4 -3 -3 -3 -3 -2 -2 -1 -3 -3 -4 -2 -3 -3 -4 -4 -4 -4 -4 -2 -2 -1 0 -0 0 0 0 1 1 0 0 -1 -2
-5 -5 -5 -5 -5 -5 -5 -5 -4 -4 -4 -4 -4 -4 -4 -4 -9 -6 -9 -4 -5 -3 -3 -2 -2 -2 -2 -2 -1 -5 -6 -5 -3 -8 -4 -3 -4 -4 -4 -4 -4 -4 -3 -3 -2 -2 -2 -2 -2 -2 -1 -2 -2 -1
-5 -5 -5 -5 -5 -5 -5 -5 -5 -4 -4 -3 -4 -8 -7 -7 -5 -4 -4 -4 -3 -3 -3 -2 -2 -2 -2 -3 -3 -4 -3 -3 -4 -7 -4 -4 -4 -4 -4 -4 -4 -4 -4 -4 -4 -3 -3 -3 -2 -1 -1 -1 -1 -2
-5 -5 -5 -5 -5 -5 -5 -5 -5 -4 -4 -4 -4 -8 -6 -4 -4 -3 -4 -4 -3 -3 -2 -2 -3 -3 -4 -4 -2 -2 -2 -2 -3 -6 -4 -4 -2 -3 -2 -3 -3 -3 -3 -4 -3 -2 -2 -3 -2 -2 -2 -2 -2 -2
-6 -6 -6 -6 -6 -5 -5 -5 -5 -4 -5 -5 -5 -5 -5 -5 -5 -3 -3 -3 -3 -3 -3 -3 -4 -4 -4 -3 -2 -2 -2 -3 -4 -4 -4 -3 -3 -3 -3 -3 -3 -3 -3 -4 -4 -3 -2 -2 -2 -2 -2 -2 -2 -2
-6 -6 -6 -6 -6 -6 -6 -5 -5 -5 -5 -5 -5 -5 -5 -4 -4 -4 -4 -4 -4 -3 -6 -4 -7 -3 -4 -4 -2 -3 -5 -4 -5 -5 -5 -4 -3 -3 -3 -3 -3 -3 -3 -3 -3 -3 -3 -3 -3 -3 -3 -3 -3 -3
-6 -6 -6 -6 -6 -6 -6 -5 -6 -6 -6 -6 -5 -5 -4 -4 -4 -4 -4 -4 -4 -4 -4 -6 -4 -5 -6 -3 -4 -4 -5 -4 -4 -3 -3 -4 -4 -4 -4 -4 -4 -4 -3 -3 -3 -4 -4 -4 -4 -3 -3 -3 -3 -3
-7 -7 -7 -6 -6 -6 -6 -6 -6 -6 -6 -6 -5 -5 -5 -5 -4 -4 -4 -4 -4 -4 -4 -4 -6 -7 -6 -5 -5 -6 -6 -5 -5 -4 -4 -4 -4 -4 -5 -5 -5 -4 -4 -4 -4 -4 -5 -5 -4 -4 -4 -4 -4 -4
-7 -7 -7 -6 -6 -6 -7 -7 -6 -6 -6 -5 -5 -5 -5 -5 -5 -5 -5 -5 -5 -5 -5 -6 -5 -4 -5 -5 -5 -4 -5 -5 -5 -5 -4 -5 -5 -5 -5 -5 -5 -5 -5 -5 -5 -5 -5 -5 -5 -5 -5 -5 -5 -4
-7 -7 -7 -6 -6 -6 -7 -7 -6 -6 -6 -5 -5 -5 -5 -5 -5 -5 -5 -5 -5 -5 -5 -5 -5 -5 -4 -5 -5 -5 -4 -4 -5 -5 -5 -5 -5 -5 -5 -5 -5 -6 -6 -6 -6 -5 -5 -5 -5 -5 -5 -5 -5 -5
-7 -7 -7 -7 -7 -7 -7 -7 -7 -6 -6 -6 -6 -5 -5 -6 -6 -5 -5 -6 -5 -5 -5 -5 -5 -5 -5 -5 -5 -5 -5 -4 -5 -5 -5 -6 -6 -6 -6 -6 -6 -6 -6 -6 -6 -6 -6 -6 -5 -5 -6 -7 -7 -7
-8 -8 -7 -7 -8 -8 -8 -7 -7 -7 -7 -6 -6 -6 -6 -6 -5 -6 -6 -6 -5 -5 -5 -5 -5 -5 -5 -5 -5 -5 -5 -5 -5 -5 -6 -6 -6 -6 -6 -6 -7 -8 -8 -7 -7 -7 -7 -7 -6 -7 -8 -8 -8 -8
-8 -8 -8 -8 -8 -8 -8 -7 -7 -6 -6 -7 -8 -9 -7 -6 -6 -6 -11 -5 -5 -5 -5 -5 -5 -6 -5 -6 -6 -5 -5 -6 -6 -6 -6 -6 -7 -6 -6 -7 -8 -8 -8 -8 -7 -7 -7 -7 -8 -8 -8 -8 -9 -9
-7 -8 -8 -9 -8 -8 -11 -12 -9 -8 -14 -12 -12 -15 -7 -6 -14 -17 -12 -6 -5 -5 -5 -6 -6 -6 -6 -6 -6 -6 -6 -6 -6 -6 -6 -7 -7 -7 -7 -7 -8 -9 -8 -8 -8 -8 -8 -8 -8 -9 -9 -10 -10 -10
-14 -8 -9 -9 -9 -12 -13 -15 -17 -15 -15 -15 -13 -6 -7 -11 -15 -13 -11 -5 -5 -5 -6 -6 -6 -6 -6 -6 -6 -6 -6 -6 -6 -7 -6 -7 -7 -8 -8 -9 -9 -8 -9 -9 -9 -9 -9 -9 -9 -10 -10 -10 -11 -11
-14 -11 -9 -8 -8 -8 -9 -8 -8 -10 -17 -15 -14 -14 -17 -15 -15 -9 -5 -5 -5 -6 -6 -6 -6 -7 -7 -7 -7 -7 -6 -6 -7 -6 -7 -7 -8 -8 -9 -9 -9 -9 -9 -10 -10 -10 -10 -10 -10 -10 -10 -11 -11 -11
-8 -8 -12 -8 -9 -7 -10 -11 -16 -15 -12 -7 -9 -14 -13 -14 -12 -5 -5 -6 -6 -6 -7 -7 -7 -7 -7 -7 -7 -7 -7 -7 -7 -7 -7 -8 -8 -8 -8 -9 -9 -9 -9 -10 -10 -10 -10 -10 -11 -11 -11 -11 -12 -12
-9 -8 -8 -9 -8 -7 -7 -9 -8 -6 -6 -6 -11 -14 -7 -6 -6 -6 -6 -6 -7 -7 -7 -7 -7 -7 -7 -7 -7 -8 -7 -7 -7 -8 -8 -8 -8 -7 -8 -9 -9 -10 -10 -10 -10 -11 -11 -11 -12 -12 -12 -12 -12 -13
-8 -7 -7 -9 -12 -13 -7 -6 -6 -5 -6 -6 -7 -7 -7 -7 -7 -7 -7 -7 -7 -7 -8 -8 -9 -9 -9 -9 -8 -8 -8 -8 -8 -8 -8 -8 -8 -8 -9 -9 -10 -10 -11 -11 -11 -11 -12 -12 -12 -12 -12 -13 -13 -13
-7 -7 -8 -7 -9 -7 -6 -6 -6 -6 -7 -7 -7 -7 -8 -7 -7 -7 -8 -8 -7 -8 -8 -8 -8 -9 -9 -9 -9 -8 -8 -8 -8 -8 -8 -8 -8 -9 -9 -10 -10 -11 -11 -12 -12 -12 -12 -13 -13 -13 -13 -13 -13 -14
-8 -8 -8 -15 -8 -7 -7 -7 -7 -7 -7 -7 -8 -8 -8 -8 -9 -8 -7 -7 -8 -8 -8 -9 -9 -8 -9 -9 -9 -9 -9 -9 -9 -9 -9 -9 -9 -9 -10 -11 -11 -12 -12 -12 -12 -13 -13 -13 -13 -13 -13 -14 -14 -14
-8 -8 -8 -8 -9 -8 -8 -8 -8 -8 -8 -8 -8 -8 -8 -9 -9 -8 -7 -7 -8 -8 -9 -9 -10 -10 -9 -9 -9 -9 -9 -9 -9 -9 -9 -9 -10 -10 -11 -11 -12 -12 -13 -13 -13 -14 -14 -14 -14 -14 -14 -14 -15 -15

GFSWCAN_850_temp_276.txt.gz
Temp
-0 -1 -1 -1 -1 -1 -1 -1 -1 -1 -1 -1 -1 -0 -0 0 1 2 2 2 3 2 1 2 2 2 2 3 -2 0 -0 -1 -5 -7 -6 -6 -4 -2 -0 2 1 -1 -3 -7 -5 -8 -3 3 2 2 3 4 4 5
-0 -1 -1 -1 -1 -1 -1 -1 -1 -1 -1 -1 -1 -1 -0 0 0 1 1 1 2 3 1 1 2 2 2 3 3 1 1 0 1 -7 -8 -6 -5 -5 -1 -2 2 -0 0 -2 -3 -2 2 3 4 4 4 3 4 4
-1 -1 -1 -1 -1 -1 -1 -1 -1 -1 -1 -1 -1 -1 -1 -1 -0 0 1 1 1 1 1 1 1 1 2 2 2 2 1 1 1 2 -2 -6 -3 -3 -4 -2 0 1 1 -3 -0 2 2 3 3 3 3 2 3 3
-1 -1 -1 -1 -1 -1 -1 -1 -1 -1 -1 -1 -1 -1 -1 -1 -1 -0 0 0 1 1 -0 -0 0 0 1 1 1 1 1 1 1 1 0 -8 -5 -1 -3 -2 -2 1 0 -0 -1 1 2 3 3 2 2 2 2 2
-1 -1 -1 -1 -1 -1 -1 -2 -2 -2 -2 -1 -1 -1 -1 -1 -1 -1 -1 -0 0 1 -1 -0 0 -0 0 0 0 0 0 0 0 -0 -2 -5 -2 -2 -2 -3 -2 0 0 -1 -0 2 1 1 2 2 1 1 1 1
-1 -1 -2 -2 -2 -2 -2 -2 -2 -2 -2 -2 -2 -2 -2 -2 -1 -1 -1 -1 -1 -0 0 -5 -1 -1 -0 0 -0 -0 -0 -1 -1 -0 -1 -1 -1 -1 -6 -4 -1 2 2 2 0 2 1 1 1 1 1 1 1 2
-2 -2 -2 -2 -3 -3 -3 -2 -2 -2 -2 -2 -2 -2 -2 -2 -2 -1 -1 -1 -2 -1 -1 -2 -2 -1 -1 -0 -1 -1 -1 -1 -1 -1 -2 -2 -1 -1 -4 -3 0 1 1 0 0 0 -0 1 0 1 0 1 1 1
-2 -2 -3 -3 -3 -3 -3 -3 -2 -2 -3 -2 -2 -2 -2 -3 -2 -2 -2 -3 -2 -2 -2 -6 -5 -1 -1 -1 -2 -2 -2 -2 -2 -2 -3 -3 -2 -2 -3 -1 -0 -0 -1 -1 -0 -0 -0 0 0 1 1 1 2 2
-3 -3 -3 -3 -3 -3 -3 -3 -3 -3 -3 -3 -3 -3 -3 -3 -3 -3 -3 -3 -3 -2 -3 -5 -6 -7 -2 -2 -2 -2 -2 -4 -4 -3 -3 -3 -4 -4 -2 -3 -3 -2 -2 -2 -1 0 1 -0 1 1 1 1 1 2
-3 -3 -3 -3 -3 -3 -3 -3 -3 -3 -3 -3 -3 -3 -3 -3 -3 -3 -4 -3 -3 -3 -4 -4 -4 -6 -2 -2 -4 -3 -4 -5 -8 -5 -4 -3 -3 -2 -3 -3 -3 -3 -2 -2 -2 -2 -1 -1 0 0 1 1 1 2
-4 -4 -4 -3 -3 -4 -4 -4 -4 -3 -3 -3 -3 -4 -4 -4 -3 -3 -5 -4 -4 -4 -4 -4 -4 -4 -3 -4 -5 -3 -5 -5 -6 -4 -5 -5 -4 -3 -3 -4 -3 -3 -3 -2 -3 -3 -3 -2 -2 -1 -1 -0 1 1
-4 -4 -4 -4 -4 -4 -4 -4 -4 -4 -3 -3 -3 -4 -4 -4 -4 -5 -7 -5 -5 -4 -4 -4 -3 -4 -3 -2 -2 -4 -4 -4 -3 -4 -5 -5 -3 -4 -4 -4 -4 -3 -3 -3 -3 -3 -3 -3 -3 -3 -2 -2 -2 -2
-4 -4 -4 -4 -4 -4 -4 -4 -4 -3 -3 -3 -3 -4 -4 -5 -8 -5 -7 -4 -5 -4 -4 -3 -3 -3 -3 -3 -2 -4 -6 -6 -4 -7 -5 -4 -4 -4 -3 -3 -3 -3 -3 -3 -3 -3 -3 -3 -3 -3 -3 -3 -2 -2
-5 -5 -5 -5 -5 -4 -4 -4 -4 -3 -3 -3 -3 -8 -8 -7 -5 -4 -4 -5 -4 -3 -3 -3 -3 -4 -3 -3 -3 -4 -3 -4 -5 -7 -5 -4 -3 -3 -3 -4 -4 -3 -3 -4 -3 -2 -2 -2 -2 -2 -2 -2 -2 -1
-5 -5 -5 -5 -5 -5 -5 -4 -4 -3 -3 -4 -4 -7 -7 -5 -4 -4 -4 -3 -3 -3 -3 -3 -4 -4 -5 -4 -4 -3 -2 -3 -3 -6 -5 -3 -3 -3 -3 -3 -3 -3 -3 -3 -3 -4 -4 -3 -3 -2 -3 -3 -3 -2
-5 -5 -5 -5 -6 -5 -5 -5 -4 -3 -4 -4 -5 -6 -6 -5 -4 -4 -3 -3 -3 -3 -3 -4 -4 -5 -5 -4 -4 -4 -2 -5 -5 -5 -4 -4 -4 -3 -3 -3 -3 -3 -3 -4 -4 -4 -4 -4 -4 -3 -3 -4 -3 -3
-6 -6 -5 -5 -5 -5 -5 -5 -4 -4 -4 -5 -6 -5 -4 -4 -4 -4 -4 -4 -4 -4 -5 -5 -8 -4 -4 -5 -3 -4 -6 -6 -5 -5 -5 -5 -5 -5 -4 -4 -4 -4 -4 -4 -4 -3 -4 -4 -4 -4 -4 -3 -4 -4
-5 -6 -6 -5 -5 -5 -5 -4 -5 -5 -6 -6 -5 -5 -4 -4 -4 -4 -4 -4 -4 -4 -4 -6 -4 -6 -9 -5 -7 -6 -6 -5 -5 -5 -5 -5 -4 -4 -4 -4 -5 -5 -5 -4 -4 -4 -4 -4 -4 -5 -5 -5 -5 -5
-6 -6 -6 -6 -5 -5 -5 -5 -5 -6 -6 -6 -5 -5 -5 -5 -5 -5 -4 -4 -4 -5 -5 -4 -8 -7 -7 -5 -5 -5 -5 -5 -5 -5 -5 -4 -5 -5 -4 -5 -5 -5 -5 -5 -5 -5 -5 -5 -5 -5 -6 -6 -6 -5
-6 -7 -6 -6 -5 -5 -6 -7 -6 -6 -6 -6 -5 -5 -5 -5 -5 -5 -5 -5 -5 -5 -5 -7 -6 -4 -4 -4 -4 -4 -5 -5 -5 -5 -5 -4 -4 -5 -5 -5 -5 -6 -6 -5 -5 -5 -6 -5 -5 -6 -6 -6 -6 -6
-7 -7 -6 -6 -5 -6 -7 -7 -6 -6 -6 -6 -6 -5 -5 -5 -5 -5 -5 -5 -5 -6 -5 -5 -5 -5 -5 -5 -5 -5 -5 -5 -5 -5 -5 -5 -5 -5 -5 -6 -6 -6 -6 -6 -6 -6 -7 -7 -7 -7 -6 -6 -7 -7
-7 -7 -6 -6 -6 -7 -7 -7 -7 -6 -6 -6 -6 -6 -6 -6 -6 -5 -5 -6 -6 -5 -5 -5 -5 -5 -5 -6 -5 -6 -6 -6 -6 -5 -5 -5 -6 -6 -6 -6 -6 -6 -6 -7 -7 -8 -8 -8 -8 -8 -8 -7 -8 -8
-7 -6 -6 -7 -7 -7 -8 -7 -7 -7 -7 -7 -6 -6 -6 -6 -6 -6 -6 -6 -5 -5 -5 -5 -5 -5 -6 -6 -6 -6 -6 -6 -6 -5 -5 -6 -6 -6 -6 -6 -6 -7 -7 -7 -8 -8 -8 -8 -8 -8 -8 -8 -9 -9
-7 -7 -7 -8 -8 -9 -8 -7 -7 -7 -7 -7 -8 -10 -7 -6 -7 -7 -12 -5 -5 -5 -5 -5 -5 -6 -6 -6 -6 -6 -6 -6 -6 -6 -6 -6 -7 -7 -6 -7 -7 -7 -8 -9 -9 -9 -9 -8 -8 -9 -9 -9 -9 -9
-7 -8 -8 -9 -9 -8 -11 -11 -9 -8 -13 -13 -13 -15 -7 -7 -15 -18 -14 -5 -4 -5 -5 -5 -6 -6 -6 -6 -6 -6 -6 -7 -7 -6 -6 -6 -7 -7 -7 -7 -7 -7 -8 -9 -9 -9 -9 -9 -9 -10 -10 -10 -10 -10
-12 -9 -8 -9 -10 -11 -13 -14 -16 -15 -16 -15 -13 -8 -9 -11 -16 -14 -10 -5 -5 -5 -5 -5 -6 -6 -6 -6 -6 -7 -7 -7 -7 -7 -7 -7 -7 -7 -7 -7 -8 -7 -8 -9 -9 -10 -10 -10 -10 -10 -10 -10 -11 -11
-13 -11 -9 -8 -8 -8 -10 -9 -10 -11 -18 -15 -14 -15 -17 -14 -16 -9 -5 -5 -5 -5 -6 -6 -6 -7 -7 -7 -7 -7 -7 -7 -7 -7 -7 -7 -7 -7 -8 -8 -8 -8 -9 -9 -10 -10 -10 -10 -10 -10 -11 -11 -11 -11
-8 -9 -12 -9 -9 -8 -9 -11 -15 -16 -11 -8 -9 -15 -14 -14 -12 -5 -5 -5 -6 -6 -7 -7 -7 -7 -7 -8 -8 -9 -8 -8 -8 -8 -8 -7 -7 -7 -8 -8 -8 -8 -9 -9 -10 -10 -11 -11 -11 -11 -11 -12 -12 -12
-9 -8 -8 -9 -9 -8 -8 -8 -8 -6 -6 -7 -10 -16 -7 -5 -5 -5 -6 -6 -7 -7 -7 -7 -7 -8 -8 -8 -8 -9 -9 -9 -9 -9 -8 -8 -8 -8 -8 -8 -8 -9 -9 -10 -10 -11 -11 -12 -12 -12 -12 -13 -13 -13
-9 -8 -8 -9 -11 -13 -6 -6 -6 -5 -6 -6 -6 -6 -7 -6 -6 -6 -7 -7 -7 -7 -7 -8 -8 -8 -8 -9 -9 -9 -9 -9 -9 -10 -9 -8 -8 -8 -8 -8 -9 -9 -9 -10 -11 -11 -12 -12 -12 -13 -13 -13 -14 -14
-7 -8 -8 -9 -8 -7 -6 -6 -6 -6 -7 -7 -7 -8 -7 -7 -7 -7 -7 -7 -7 -8 -8 -8 -8 -8 -9 -9 -9 -9 -9 -9 -9 -9 -9 -9 -9 -9 -9 -9 -9 -9 -10 -11 -11 -12 -12 -12 -13 -13 -14 -14 -14 -14
-8 -8 -8 -15 -8 -7 -7 -8 -8 -7 -7 -7 -8 -8 -8 -8 -8 -7 -7 -7 -7 -8 -8 -8 -8 -8 -9 -10 -10 -10 -9 -9 -9 -9 -9 -9 -9 -9 -9 -9 -10 -10 -11 -11 -12 -12 -13 -13 -14 -14 -14 -14 -15 -15
-10 -10 -9 -9 -8 -8 -8 -8 -9 -9 -9 -9 -8 -8 -8 -9 -9 -8 -7 -7 -7 -7 -8 -9 -9 -9 -10 -10 -10 -11 -10 -10 -9 -9 -9 -10 -10 -10 -11 -11 -11 -12 -12 -12 -13 -13 -13 -14 -14 -15 -15 -15 -15 -16

GFSWCAN_850_temp_279.txt.gz
Temp
0 0 -0 0 -0 -0 -0 -0 -0 -1 -0 -0 -0 0 1 1 2 3 3 4 5 3 1 3 3 3 3 4 0 0 1 0 -2 -1 -0 -1 0 2 2 3 2 1 -0 -1 -2 -2 -0 3 3 4 5 3 4 3
-0 0 -0 -0 -0 -1 -1 -0 -1 -1 -1 -1 -0 -0 0 1 1 2 3 3 4 4 1 1 2 3 4 4 4 1 1 1 1 -3 -3 -2 -0 -1 1 2 2 2 3 1 1 2 2 3 3 4 3 3 3 2
-0 -0 -0 -0 -1 -1 -1 -1 -1 -1 -1 -1 -1 -0 0 0 1 2 2 3 3 2 0 1 1 2 2 3 4 3 1 2 2 2 -2 -2 1 0 1 1 2 2 1 2 1 3 2 2 2 3 3 2 2 2
-1 -0 -1 -1 -1 -1 -1 -1 -1 -1 -1 -1 -1 -1 -0 0 1 1 2 2 3 2 1 -1 -0 0 1 2 2 3 3 2 2 2 0 -2 0 -1 1 1 1 2 1 2 2 2 2 2 2 2 2 1 1 1
-1 -1 -1 -1 -1 -1 -1 -1 -1 -1 -1 -1 -1 -1 -1 -0 0 1 1 2 2 2 -0 -1 -1 -0 0 1 1 1 1 2 1 0 -1 -0 -2 -1 -2 -2 -0 1 2 1 2 2 1 1 1 1 0 1 0 -0
-1 -1 -1 -1 -1 -1 -1 -1 -1 -1 -1 -1 -1 -1 -1 -1 -1 0 1 0 1 2 2 -2 -1 -1 -0 -1 -0 -0 -0 0 0 0 -1 -1 -1 -1 -1 -1 -0 0 1 0 0 0 -0 -0 -0 1 -0 1 1 0
-1 -1 -1 -1 -1 -2 -2 -2 -2 -2 -2 -2 -2 -1 -2 -1 -1 -0 -1 -1 0 1 1 -2 -2 -2 -2 -1 -1 -2 -1 -1 -1 -1 -2 -2 -2 -1 -2 -2 0 -1 -1 -1 -1 -2 -2 -0 -1 -1 -1 -0 0 0
-2 -1 -1 -2 -2 -2 -2 -2 -2 -2 -2 -2 -2 -2 -2 -2 -1 -2 -2 -2 -1 0 -0 -3 -3 -2 -2 -2 -2 -2 -2 -2 -2 -2 -3 -3 -3 -3 -1 -1 -3 -3 -3 -2 -2 -2 -2 -2 -1 -0 -0 -1 -1 -0
-2 -2 -2 -2 -2 -2 -2 -2 -3 -2 -2 -2 -2 -2 -3 -2 -2 -3 -3 -2 -1 -0 -3 -4 -3 -3 -2 -2 -3 -3 -4 -4 -4 -3 -2 -3 -2 -2 -2 -3 -3 -3 -3 -3 -2 -2 -3 -3 -3 -3 -2 -1 -2 -0
-3 -3 -3 -2 -2 -2 -2 -2 -3 -3 -2 -2 -2 -2 -3 -3 -3 -2 -3 -2 -2 -2 -3 -4 -4 -3 -3 -3 -4 -4 -4 -4 -3 -3 -4 -2 -1 -3 -3 -3 -3 -3 -3 -4 -3 -4 -4 -4 -4 -4 -3 -3 -2 -2
-3 -3 -3 -3 -3 -3 -3 -3 -3 -3 -3 -2 -3 -4 -4 -3 -3 -3 -4 -4 -4 -4 -4 -4 -4 -3 -3 -2 -3 -4 -4 -4 -3 -2 -3 -3 -2 -3 -3 -3 -3 -3 -3 -3 -3 -3 -3 -3 -3 -4 -4 -3 -3 -3
-3 -3 -3 -3 -3 -3 -3 -3 -3 -3 -2 -2 -3 -4 -3 -3 -4 -5 -5 -5 -3 -3 -4 -4 -4 -3 -3 -2 -3 -4 -3 -3 -2 -4 -3 -3 -2 -3 -3 -3 -3 -3 -3 -3 -3 -3 -2 -3 -3 -3 -3 -4 -3 -3
-3 -3 -3 -3 -4 -4 -4 -4 -3 -2 -3 -2 -2 -3 -4 -5 -6 -4 -5 -3 -4 -4 -4 -4 -4 -3 -3 -3 -4 -4 -3 -3 -4 -3 -3 -2 -3 -3 -3 -4 -4 -4 -4 -4 -4 -3 -3 -3 -3 -3 -3 -3 -3 -3
-3 -3 -4 -4 -4 -4 -4 -3 -3 -2 -2 -2 -3 -7 -6 -6 -4 -3 -3 -3 -4 -3 -3 -3 -4 -4 -4 -3 -3 -3 -2 -3 -4 -4 -3 -3 -3 -4 -4 -4 -4 -4 -4 -4 -4 -3 -3 -3 -3 -3 -3 -3 -3 -3
-4 -4 -4 -4 -4 -4 -4 -4 -3 -2 -3 -3 -3 -6 -5 -5 -5 -4 -4 -3 -3 -3 -3 -3 -4 -4 -4 -4 -3 -3 -3 -3 -2 -3 -4 -5 -5 -4 -4 -3 -3 -3 -4 -4 -4 -4 -4 -4 -4 -3 -3 -4 -4 -3
-5 -5 -5 -5 -5 -4 -4 -4 -3 -2 -4 -4 -5 -6 -5 -5 -5 -4 -4 -4 -3 -3 -3 -3 -4 -4 -3 -4 -4 -4 -2 -3 -4 -4 -5 -5 -5 -5 -4 -4 -4 -4 -4 -4 -4 -5 -4 -4 -4 -4 -4 -4 -5 -5
-5 -5 -5 -5 -5 -4 -4 -4 -3 -3 -4 -5 -6 -5 -5 -4 -4 -4 -4 -4 -3 -3 -5 -5 -6 -3 -4 -4 -3 -3 -4 -5 -5 -5 -4 -4 -5 -4 -4 -4 -4 -4 -4 -5 -5 -5 -5 -5 -5 -5 -4 -4 -5 -5
-5 -5 -5 -5 -5 -5 -4 -3 -4 -5 -6 -6 -5 -5 -4 -4 -4 -4 -4 -4 -4 -4 -4 -4 -5 -4 -5 -4 -4 -5 -5 -5 -5 -5 -5 -5 -5 -4 -4 -5 -5 -5 -5 -5 -5 -5 -5 -5 -5 -5 -5 -5 -5 -5
-5 -6 -5 -5 -5 -4 -4 -4 -5 -6 -7 -6 -5 -5 -4 -5 -5 -4 -4 -4 -4 -4 -4 -5 -6 -5 -5 -5 -4 -4 -5 -6 -6 -5 -5 -5 -5 -5 -5 -5 -5 -5 -6 -6 -6 -6 -6 -6 -6 -6 -6 -7 -7 -7
-6 -6 -6 -5 -4 -4 -6 -6 -6 -5 -6 -6 -5 -5 -5 -5 -5 -5 -5 -5 -5 -5 -5 -6 -6 -5 -4 -5 -5 -5 -5 -6 -6 -6 -6 -6 -5 -5 -5 -6 -6 -6 -6 -6 -6 -6 -6 -6 -6 -7 -8 -8 -8 -8
-6 -7 -7 -5 -5 -6 -6 -6 -6 -6 -6 -6 -6 -5 -6 -6 -5 -5 -5 -5 -6 -6 -6 -5 -5 -5 -5 -5 -5 -6 -6 -6 -6 -7 -7 -7 -6 -6 -5 -5 -6 -6 -6 -6 -7 -7 -7 -7 -8 -8 -8 -9 -8 -8
-7 -7 -6 -5 -6 -6 -7 -7 -6 -6 -6 -6 -6 -6 -6 -6 -6 -6 -6 -6 -6 -5 -5 -5 -5 -5 -5 -5 -6 -6 -6 -6 -6 -6 -6 -6 -6 -6 -6 -6 -7 -7 -7 -7 -7 -7 -8 -8 -8 -8 -8 -9 -9 -9
-6 -6 -5 -6 -7 -7 -8 -7 -7 -7 -7 -7 -6 -7 -7 -6 -6 -6 -6 -6 -5 -4 -4 -5 -5 -5 -5 -6 -6 -6 -6 -6 -6 -6 -6 -6 -6 -6 -7 -7 -7 -7 -7 -7 -7 -8 -8 -9 -9 -9 -9 -9 -9 -10
-6 -6 -7 -7 -7 -9 -8 -7 -7 -7 -7 -7 -8 -9 -8 -7 -7 -7 -9 -6 -4 -4 -4 -5 -5 -5 -6 -6 -6 -6 -6 -6 -6 -6 -6 -7 -7 -7 -7 -7 -7 -7 -8 -8 -8 -8 -9 -9 -9 -10 -10 -10 -10 -11
-6 -8 -7 -9 -9 -8 -10 -10 -10 -9 -12 -12 -12 -12 -8 -8 -12 -13 -10 -5 -4 -4 -4 -5 -5 -5 -6 -6 -6 -7 -7 -7 -7 -7 -7 -7 -7 -7 -7 -7 -7 -7 -8 -8 -8 -8 -9 -9 -10 -10 -10 -10 -11 -11
-11 -9 -8 -9 -9 -10 -11 -12 -13 -13 -14 -14 -12 -10 -10 -11 -13 -11 -9 -5 -5 -5 -5 -5 -6 -6 -6 -7 -7 -7 -7 -8 -9 -9 -8 -8 -8 -8 -8 -8 -7 -7 -7 -8 -8 -8 -9 -10 -10 -10 -10 -11 -11 -12
-12 -10 -9 -9 -8 -9 -10 -10 -10 -11 -16 -13 -12 -14 -13 -13 -13 -8 -5 -5 -5 -5 -5 -6 -6 -7 -7 -7 -8 -8 -8 -8 -9 -9 -9 -9 -9 -9 -8 -8 -8 -8 -8 -8 -8 -9 -9 -10 -10 -10 -11 -11 -12 -12
-8 -9 -10 -9 -9 -8 -10 -11 -13 -14 -11 -8 -10 -14 -12 -12 -10 -5 -4 -5 -5 -6 -6 -6 -7 -7 -7 -8 -8 -8 -8 -8 -9 -9 -9 -9 -9 -9 -8 -8 -8 -8 -8 -8 -9 -9 -9 -10 -10 -11 -11 -11 -12 -12
-8 -8 -8 -9 -9 -9 -8 -8 -8 -7 -6 -7 -10 -12 -7 -5 -5 -5 -5 -6 -6 -6 -7 -7 -7 -8 -8 -8 -7 -8 -8 -9 -9 -10 -9 -9 -9 -8 -8 -8 -8 -8 -8 -9 -9 -9 -10 -11 -11 -11 -12 -12 -12 -13
-8 -8 -8 -9 -10 -13 -7 -6 -6 -6 -6 -6 -6 -6 -6 -6 -6 -6 -6 -7 -7 -7 -7 -7 -8 -8 -8 -8 -8 -8 -8 -9 -9 -10 -11 -10 -10 -10 -9 -9 -9 -9 -9 -9 -10 -10 -11 -11 -11 -12 -12 -12 -13 -14
-8 -8 -9 -8 -9 -6 -6 -6 -6 -7 -7 -7 -7 -8 -7 -7 -7 -7 -7 -7 -7 -7 -7 -7 -8 -8 -9 -9 -9 -9 -9 -9 -10 -10 -10 -10 -10 -9 -9 -9 -9 -10 -10 -10 -11 -11 -12 -12 -12 -13 -13 -13 -14 -14
-9 -9 -9 -13 -8 -7 -8 -8 -8 -8 -8 -8 -8 -8 -8 -9 -9 -7 -7 -7 -7 -7 -8 -7 -8 -9 -9 -9 -9 -10 -10 -11 -11 -10 -10 -10 -10 -10 -9 -10 -10 -10 -11 -11 -12 -12 -12 -13 -13 -13 -14 -14 -14 -15
-11 -11 -10 -9 -9 -8 -8 -8 -9 -9 -9 -9 -8 -8 -8 -9 -9 -8 -7 -7 -7 -7 -8 -8 -9 -9 -9 -9 -10 -10 -11 -12 -12 -12 -12 -11 -11 -11 -11 -11 -12 -12 -12 -12 -13 -13 -13 -14 -14 -14 -14 -15 -15 -15

GFSWCAN_850_temp_285.txt.gz
Temp
3 3 2 1 1 1 1 0 0 0 1 2 2 3 3 3 3 4 5 6 6 2 2 5 6 7 8 6 5 6 5 4 3 3 7 6 8 8 9 10 7 6 5 5 5 5 5 9 8 8 9 8 8 7
3 2 1 1 1 1 1 0 1 1 1 2 2 3 3 3 3 4 5 5 6 5 1 1 3 3 4 5 6 5 6 6 4 5 6 7 6 7 9 8 11 8 8 8 7 8 8 8 8 8 7 7 6 6
2 1 1 0 1 1 1 1 1 1 1 2 2 2 2 3 3 4 5 5 5 1 2 2 1 2 4 4 4 3 5 6 6 5 6 7 7 8 7 8 9 10 9 7 7 9 9 8 7 6 6 5 5 5
1 1 0 0 1 1 1 0 0 1 1 1 2 2 2 2 3 4 4 5 4 3 3 1 1 2 2 2 4 4 5 4 4 5 3 5 6 6 8 8 8 9 8 8 8 8 8 7 6 4 4 4 4 4
1 0 0 1 1 1 0 -0 0 0 0 1 1 1 2 2 2 3 4 4 4 4 3 1 1 0 1 2 3 3 3 4 3 2 3 5 6 6 6 5 7 8 8 7 7 5 4 4 3 3 3 2 2 2
0 0 0 0 0 0 -0 -0 -0 -0 0 0 0 1 1 2 2 2 3 3 4 4 2 3 0 -0 1 1 1 2 3 3 3 3 4 4 3 5 5 6 7 6 5 4 4 3 3 2 2 2 0 1 1 1
0 0 0 0 -0 -0 -1 -1 -0 -0 -0 0 0 0 1 1 1 3 2 2 4 4 2 2 2 -1 -0 1 1 0 1 1 3 2 3 4 4 3 4 5 6 3 3 3 2 1 1 1 0 -0 -0 1 0 0
-0 -0 -0 -1 -1 -1 -1 -1 -1 -1 -1 -0 -0 -0 0 1 1 1 1 2 3 2 2 3 1 1 -0 1 0 0 -1 1 1 2 2 3 2 3 3 5 3 2 2 2 1 -0 -1 -1 -0 1 1 1 0 0
-0 -0 -1 -1 -1 -1 -1 -1 -1 -1 -1 -1 -1 -1 -0 -0 -1 -1 0 1 3 2 1 2 3 2 -0 1 -0 -1 -0 1 -0 1 2 2 3 2 4 4 2 1 1 1 -0 0 1 1 1 1 0 0 0 -0
-1 -1 -1 -1 -1 -1 -1 -1 -1 -1 -1 -1 -0 0 -1 -2 -0 1 2 2 2 1 0 2 3 1 2 2 0 -0 -1 2 1 2 1 1 3 4 2 1 0 -0 -0 -0 0 0 -0 -0 -0 -0 -0 -1 -1 -1
-1 -1 -1 -1 -1 -1 -1 -1 -1 -1 -1 -1 -2 -3 -2 -0 -1 -0 -1 1 2 2 2 2 3 1 1 3 2 2 2 2 2 2 2 3 4 2 -0 -1 -1 -1 -1 -1 -0 -0 -1 -1 -1 -1 -2 -2 -2 -2
-1 -1 -1 -1 -1 -1 -2 -2 -1 -1 -1 -1 -1 -2 -2 -1 -0 0 1 1 4 3 1 2 2 1 0 2 2 1 2 2 2 2 1 2 0 0 -1 -1 -1 -1 -1 -1 -1 -1 -1 -2 -2 -3 -3 -3 -3 -4
-2 -2 -2 -2 -2 -2 -2 -2 -2 -1 -0 0 -1 -1 0 -1 0 2 -0 2 1 1 0 -0 0 0 0 1 0 1 1 1 2 0 2 1 -0 -1 -1 -2 -1 -1 -1 -2 -2 -2 -2 -2 -3 -3 -4 -4 -5 -5
-2 -2 -2 -2 -2 -2 -3 -2 -1 -1 -1 0 0 -2 1 0 2 3 4 3 0 1 1 1 -1 -0 0 1 1 0 2 2 1 1 1 -0 -2 -2 -2 -2 -2 -2 -3 -3 -3 -3 -3 -3 -4 -5 -5 -5 -6 -6
-3 -3 -3 -3 -2 -3 -3 -2 -1 -0 -2 -1 0 -0 -0 -0 0 0 0 0 0 -0 -0 -0 0 0 -0 -1 2 2 0 1 2 1 -1 -2 -3 -3 -3 -3 -3 -3 -3 -4 -3 -4 -4 -4 -4 -5 -5 -5 -5 -5
-3 -3 -3 -2 -3 -3 -3 -2 -1 -1 -3 -2 -1 -1 -1 -1 -1 -0 -0 -0 0 0 0 1 1 1 1 2 0 0 2 1 -1 -2 -3 -2 -3 -3 -3 -3 -3 -3 -4 -4 -4 -4 -4 -5 -5 -6 -6 -5 -5 -6
-3 -3 -3 -3 -4 -3 -2 -0 -2 -3 -3 -2 -2 -1 -1 -1 -1 -1 -1 -2 -1 -0 -0 0 -0 1 1 1 2 1 -1 -2 -2 -3 -2 -3 -3 -3 -4 -4 -4 -4 -4 -4 -5 -5 -5 -5 -6 -6 -6 -6 -7 -7
-3 -3 -4 -4 -3 -2 -1 -2 -3 -3 -3 -3 -2 -2 -2 -2 -2 -2 -2 -2 -1 -1 -0 -0 -0 0 -0 0 -0 -1 -2 -3 -3 -3 -3 -3 -4 -4 -4 -5 -5 -5 -5 -5 -6 -6 -6 -6 -6 -6 -6 -7 -7 -7
-4 -4 -4 -3 -3 -2 -3 -4 -4 -4 -4 -3 -3 -2 -2 -3 -3 -3 -3 -3 -2 -2 -2 -1 -1 0 1 -0 -1 -2 -3 -3 -3 -4 -4 -4 -4 -5 -6 -5 -5 -5 -5 -6 -6 -6 -6 -6 -6 -6 -6 -6 -7 -8
-4 -5 -4 -3 -2 -3 -4 -4 -4 -3 -3 -3 -3 -2 -3 -3 -3 -4 -3 -3 -3 -2 -3 -2 -1 -1 -2 -3 -3 -3 -4 -4 -4 -4 -4 -4 -5 -5 -5 -5 -6 -5 -5 -5 -6 -6 -6 -6 -6 -7 -7 -7 -8 -8
-5 -5 -4 -3 -3 -4 -5 -5 -4 -4 -3 -4 -3 -3 -4 -3 -4 -4 -3 -3 -3 -3 -2 -2 -3 -3 -4 -4 -4 -4 -4 -4 -4 -4 -4 -5 -5 -5 -5 -5 -6 -6 -6 -6 -7 -7 -7 -7 -7 -7 -7 -8 -9 -9
-5 -4 -3 -2 -4 -6 -6 -5 -4 -4 -4 -4 -4 -3 -4 -4 -4 -4 -4 -4 -3 -3 -3 -3 -3 -4 -4 -5 -4 -5 -5 -5 -5 -5 -5 -5 -5 -6 -6 -6 -7 -7 -7 -7 -7 -7 -7 -7 -7 -7 -8 -8 -9 -10
-4 -4 -4 -5 -6 -6 -6 -5 -4 -4 -4 -4 -3 -3 -4 -4 -4 -4 -4 -3 -3 -4 -4 -4 -4 -4 -4 -5 -5 -5 -5 -5 -5 -5 -6 -6 -6 -6 -7 -7 -7 -7 -7 -7 -7 -7 -7 -7 -7 -8 -8 -9 -10 -10
-4 -4 -6 -7 -6 -7 -6 -5 -5 -4 -4 -3 -3 -3 -3 -4 -4 -4 -3 -3 -3 -4 -4 -4 -5 -5 -5 -5 -5 -5 -5 -5 -6 -6 -6 -6 -7 -7 -7 -7 -7 -8 -8 -8 -8 -8 -8 -8 -8 -9 -9 -10 -10 -10
-5 -7 -7 -7 -7 -6 -5 -5 -5 -4 -5 -4 -4 -4 -5 -5 -4 -4 -4 -4 -4 -4 -4 -4 -5 -5 -5 -5 -5 -5 -5 -6 -6 -6 -7 -7 -7 -7 -8 -8 -8 -8 -8 -9 -9 -9 -9 -8 -8 -8 -10 -10 -10 -11
-6 -8 -6 -6 -6 -5 -4 -5 -5 -5 -4 -4 -5 -5 -5 -4 -4 -4 -4 -4 -4 -4 -5 -5 -5 -5 -5 -5 -5 -5 -6 -6 -7 -7 -7 -8 -8 -8 -9 -9 -9 -9 -9 -9 -10 -9 -9 -8 -9 -9 -10 -10 -11 -12
-6 -7 -7 -7 -6 -6 -6 -6 -6 -4 -5 -5 -5 -5 -5 -5 -4 -4 -4 -4 -4 -4 -5 -5 -5 -5 -6 -6 -6 -6 -7 -8 -8 -9 -9 -9 -9 -10 -10 -10 -10 -10 -10 -10 -10 -10 -9 -9 -9 -9 -10 -11 -12 -12
-7 -6 -6 -7 -6 -6 -6 -5 -5 -5 -4 -5 -5 -5 -5 -4 -3 -4 -4 -4 -5 -5 -5 -6 -6 -6 -6 -7 -7 -8 -8 -9 -9 -8 -9 -9 -9 -9 -10 -10 -10 -10 -10 -10 -10 -9 -10 -10 -10 -10 -11 -11 -12 -12
-7 -7 -7 -8 -6 -6 -5 -5 -4 -5 -5 -5 -5 -4 -4 -4 -5 -5 -5 -5 -6 -6 -7 -6 -7 -7 -8 -8 -8 -9 -10 -10 -10 -10 -10 -10 -10 -10 -10 -10 -10 -10 -10 -10 -10 -10 -9 -10 -10 -11 -11 -11 -12 -12
-7 -6 -6 -7 -6 -4 -5 -6 -6 -6 -6 -5 -5 -5 -5 -5 -5 -6 -6 -6 -7 -6 -7 -7 -8 -7 -7 -8 -9 -9 -10 -10 -9 -10 -10 -10 -10 -10 -10 -10 -10 -10 -10 -10 -11 -11 -10 -10 -11 -11 -11 -12 -13 -13
-7 -7 -6 -6 -6 -7 -7 -6 -6 -6 -6 -6 -7 -7 -6 -6 -7 -7 -7 -7 -7 -7 -7 -7 -7 -7 -8 -8 -10 -10 -11 -11 -10 -10 -10 -11 -11 -11 -12 -12 -12 -12 -11 -11 -12 -12 -12 -13 -12 -12 -13 -13 -13 -14
-7 -6 -7 -6 -6 -7 -7 -7 -7 -7 -7 -7 -7 -7 -7 -8 -7 -7 -7 -7 -7 -7 -7 -7 -7 -8 -8 -9 -9 -9 -9 -10 -10 -10 -11 -11 -12 -12 -13 -13 -13 -13 -13 -13 -13 -13 -13 -13 -13 -13 -14 -14 -14 -15
-9 -8 -8 -8 -7 -7 -8 -8 -7 -7 -7 -7 -7 -7 -7 -7 -7 -7 -7 -7 -7 -7 -7 -8 -8 -8 -9 -9 -9 -10 -10 -10 -11 -11 -11 -12 -12 -13 -13 -14 -14 -14 -14 -14 -14 -14 -14 -14 -14 -14 -14 -15 -15 -15